Time,TemperatureF,DewpointF,PressureIn,WindDirection,WindDirectionDegrees,WindSpeedMPH,WindSpeedGustMPH,Humidity,HourlyPrecipIn,Conditions,Clouds,dailyrainin,SoftwareType,DateUTC
2013-03-07 00:04:00,37.9,31.0,30.02,NE,56,4.0,18.0,76,0.00,,---,0.00,VWS V14.01,2013-03-07 05:04:00,
2013-03-07 00:09:00,37.9,31.4,30.02,ENE,61,6.0,12.0,77,0.00,,---,0.00,VWS V14.01,2013-03-07 05:09:00,
2013-03-07 00:14:00,37.9,31.4,30.02,NNE,20,10.0,17.0,77,0.00,,---,0.00,VWS V14.01,2013-03-07 05:14:00,
2013-03-07 00:19:00,38.0,31.1,30.02,ENE,63,11.0,26.0,76,0.00,,---,0.00,VWS V14.01,2013-03-07 05:19:00,
2013-03-07 00:24:00,37.9,31.0,30.02,ENE,75,9.0,16.0,76,0.00,,---,0.00,VWS V14.01,2013-03-07 05:24:00,
2013-03-07 00:29:00,37.9,31.4,30.02,NW,322,9.0,17.0,77,0.00,,---,0.00,VWS V14.01,2013-03-07 05:29:00,
2013-03-07 00:39:00,37.9,31.4,30.03,NE,46,3.0,16.0,77,0.00,,---,0.00,VWS V14.01,2013-03-07 05:39:00,
2013-03-07 00:44:00,38.0,31.1,30.02,North,5,11.0,18.0,76,0.00,,---,0.00,VWS V14.01,2013-03-07 05:44:00,
2013-03-07 00:49:00,38.1,31.2,30.02,NE,53,10.0,20.0,76,0.00,,---,0.00,VWS V14.01,2013-03-07 05:49:00,
2013-03-07 00:54:00,38.1,31.2,30.02,ENE,69,15.0,28.0,76,0.00,,---,0.00,VWS V14.01,2013-03-07 05:54:00,
2013-03-07 00:59:00,38.0,31.4,30.01,NNE,25,9.0,21.0,77,0.00,,---,0.00,VWS V14.01,2013-03-07 05:59:00,
2013-03-07 01:04:00,38.0,31.4,30.01,North,355,10.0,23.0,77,0.00,,---,0.00,VWS V14.01,2013-03-07 06:04:00,
2013-03-07 01:09:00,38.0,31.4,30.01,ENE,57,6.0,22.0,77,0.00,,---,0.00,VWS V14.01,2013-03-07 06:09:00,
2013-03-07 01:14:00,38.0,31.4,30.00,NE,49,4.0,29.0,77,0.00,,---,0.00,VWS V14.01,2013-03-07 06:14:00,
2013-03-07 01:24:00,37.9,31.4,30.00,NE,51,12.0,19.0,77,0.00,,---,0.00,VWS V14.01,2013-03-07 06:24:00,
2013-03-07 01:29:00,37.8,31.6,30.00,North,360,5.0,22.0,78,0.00,,---,0.00,VWS V14.01,2013-03-07 06:29:00,
2013-03-07 01:34:00,37.7,31.5,30.00,North,360,8.0,19.0,78,0.00,,---,0.00,VWS V14.01,2013-03-07 06:34:00,
2013-03-07 01:39:00,37.7,31.5,29.99,ENE,59,13.0,19.0,78,0.00,,---,0.00,VWS V14.01,2013-03-07 06:39:00,
2013-03-07 01:44:00,37.6,31.4,29.99,NNE,31,5.0,21.0,78,0.00,,---,0.00,VWS V14.01,2013-03-07 06:44:00,
2013-03-07 01:54:00,37.7,31.5,29.99,NE,45,18.0,22.0,78,0.00,,---,0.00,VWS V14.01,2013-03-07 06:54:00,
2013-03-07 01:59:00,37.7,31.5,29.98,NE,38,10.0,18.0,78,0.00,,---,0.00,VWS V14.01,2013-03-07 06:59:00,
2013-03-07 02:04:00,37.6,31.7,29.98,NE,55,4.0,19.0,79,0.01,,---,0.01,VWS V14.01,2013-03-07 07:04:00,
2013-03-07 02:09:00,37.5,31.6,29.98,NE,40,18.0,19.0,79,0.01,,---,0.01,VWS V14.01,2013-03-07 07:09:00,
2013-03-07 02:19:00,37.6,31.7,29.98,NNE,28,20.0,24.0,79,0.01,,---,0.01,VWS V14.01,2013-03-07 07:19:00,
2013-03-07 02:24:00,37.5,31.6,29.97,NNE,25,11.0,20.0,79,0.01,,---,0.01,VWS V14.01,2013-03-07 07:24:00,
2013-03-07 02:29:00,37.5,31.6,29.97,North,355,5.0,22.0,79,0.01,,---,0.01,VWS V14.01,2013-03-07 07:29:00,
2013-03-07 02:34:00,37.6,31.7,29.98,NNE,29,16.0,24.0,79,0.01,,---,0.01,VWS V14.01,2013-03-07 07:34:00,
2013-03-07 02:39:00,37.5,31.9,29.97,NE,37,22.0,22.0,80,0.01,,---,0.01,VWS V14.01,2013-03-07 07:39:00,
2013-03-07 02:44:00,37.4,31.8,29.97,ENE,72,9.0,27.0,80,0.01,,---,0.01,VWS V14.01,2013-03-07 07:44:00,
2013-03-07 02:49:00,37.3,32.0,29.97,North,360,9.0,22.0,81,0.01,,---,0.01,VWS V14.01,2013-03-07 07:49:00,
2013-03-07 02:59:00,36.8,32.1,29.97,NE,46,15.0,25.0,83,0.01,,---,0.01,VWS V14.01,2013-03-07 07:59:00,
2013-03-07 03:04:00,36.7,32.0,29.97,NNE,26,9.0,25.0,83,0.01,,---,0.01,VWS V14.01,2013-03-07 08:04:00,
2013-03-07 03:09:00,36.8,31.8,29.97,ENE,60,10.0,32.0,82,0.00,,---,0.01,VWS V14.01,2013-03-07 08:09:00,
2013-03-07 03:19:00,36.5,33.6,29.97,ENE,69,14.0,16.0,89,0.00,,---,0.01,VWS V14.01,2013-03-07 08:19:00,
2013-03-07 03:29:00,36.2,32.1,29.97,North,355,12.0,27.0,85,0.00,,---,0.01,VWS V14.01,2013-03-07 08:29:00,
2013-03-07 03:39:00,35.8,31.7,29.97,NE,51,12.0,22.0,85,0.00,,---,0.01,VWS V14.01,2013-03-07 08:39:00,
2013-03-07 03:44:00,35.6,31.8,29.97,NE,36,6.0,18.0,86,0.00,,---,0.01,VWS V14.01,2013-03-07 08:44:00,
2013-03-07 03:49:00,35.6,31.8,29.97,NE,53,3.0,17.0,86,0.00,,---,0.01,VWS V14.01,2013-03-07 08:49:00,
2013-03-07 03:54:00,35.5,32.0,29.97,NNE,30,5.0,16.0,87,0.00,,---,0.01,VWS V14.01,2013-03-07 08:54:00,
2013-03-07 03:59:00,35.3,32.1,29.97,North,360,5.0,14.0,88,0.00,,---,0.01,VWS V14.01,2013-03-07 08:59:00,
2013-03-07 04:09:00,34.7,32.1,29.97,North,5,7.0,23.0,90,0.00,,---,0.01,VWS V14.01,2013-03-07 09:09:00,
2013-03-07 04:19:00,34.4,32.0,29.97,NNE,25,4.0,22.0,91,0.00,,---,0.01,VWS V14.01,2013-03-07 09:19:00,
2013-03-07 04:24:00,34.4,32.0,29.96,NNE,30,6.0,18.0,91,0.00,,---,0.01,VWS V14.01,2013-03-07 09:24:00,
2013-03-07 04:34:00,34.4,32.3,29.96,NE,37,11.0,17.0,92,0.00,,---,0.01,VWS V14.01,2013-03-07 09:34:00,
2013-03-07 04:44:00,34.4,32.3,29.95,ENE,62,7.0,22.0,92,0.00,,---,0.01,VWS V14.01,2013-03-07 09:44:00,
2013-03-07 04:49:00,34.4,32.3,29.95,North,9,9.0,22.0,92,0.00,,---,0.01,VWS V14.01,2013-03-07 09:49:00,
2013-03-07 04:54:00,34.4,32.3,29.95,NNW,331,9.0,22.0,92,0.00,,---,0.01,VWS V14.01,2013-03-07 09:54:00,
2013-03-07 05:04:00,34.4,32.3,29.95,North,5,9.0,26.0,92,0.00,,---,0.01,VWS V14.01,2013-03-07 10:04:00,
2013-03-07 05:09:00,34.4,32.3,29.95,ENE,59,11.0,19.0,92,0.00,,---,0.01,VWS V14.01,2013-03-07 10:09:00,
2013-03-07 05:14:00,34.4,32.3,29.95,NW,321,12.0,22.0,92,0.00,,---,0.01,VWS V14.01,2013-03-07 10:14:00,
2013-03-07 05:19:00,34.4,32.3,29.95,ENE,63,5.0,18.0,92,0.00,,---,0.01,VWS V14.01,2013-03-07 10:19:00,
2013-03-07 05:29:00,34.4,32.0,29.96,NE,48,6.0,18.0,91,0.00,,---,0.01,VWS V14.01,2013-03-07 10:29:00,
2013-03-07 05:34:00,34.4,32.0,29.97,NNW,327,6.0,23.0,91,0.00,,---,0.01,VWS V14.01,2013-03-07 10:34:00,
2013-03-07 05:39:00,34.4,32.0,29.96,NNW,339,10.0,20.0,91,0.00,,---,0.01,VWS V14.01,2013-03-07 10:39:00,
2013-03-07 05:44:00,34.5,32.2,29.96,NE,34,15.0,27.0,91,0.00,,---,0.01,VWS V14.01,2013-03-07 10:44:00,
2013-03-07 05:54:00,34.4,31.8,29.96,NNW,348,12.0,17.0,90,0.00,,---,0.01,VWS V14.01,2013-03-07 10:54:00,
2013-03-07 06:04:00,34.4,32.0,29.97,NE,40,5.0,21.0,91,0.00,,---,0.01,VWS V14.01,2013-03-07 11:04:00,
2013-03-07 06:14:00,34.4,32.0,29.97,ENE,70,5.0,13.0,91,0.00,,---,0.01,VWS V14.01,2013-03-07 11:14:00,
2013-03-07 06:24:00,34.3,32.0,29.97,NNW,334,11.0,21.0,91,0.00,,---,0.01,VWS V14.01,2013-03-07 11:24:00,
2013-03-07 06:29:00,34.2,31.9,29.97,NE,36,4.0,18.0,91,0.00,,---,0.01,VWS V14.01,2013-03-07 11:29:00,
2013-03-07 06:34:00,34.1,31.8,29.97,North,11,13.0,18.0,91,0.00,,---,0.01,VWS V14.01,2013-03-07 11:34:00,
2013-03-07 06:39:00,34.2,31.9,29.97,ENE,60,10.0,20.0,91,0.00,,---,0.01,VWS V14.01,2013-03-07 11:39:00,
2013-03-07 06:44:00,34.2,31.9,29.97,North,355,13.0,15.0,91,0.00,,---,0.01,VWS V14.01,2013-03-07 11:44:00,
2013-03-07 06:49:00,34.1,31.8,29.98,WNW,298,12.0,21.0,91,0.00,,---,0.01,VWS V14.01,2013-03-07 11:49:00,
2013-03-07 06:54:00,33.9,31.6,29.98,NNE,29,7.0,18.0,91,0.00,,---,0.01,VWS V14.01,2013-03-07 11:54:00,
2013-03-07 06:59:00,33.8,31.5,29.98,North,355,12.0,17.0,91,0.00,,---,0.01,VWS V14.01,2013-03-07 11:59:00,
2013-03-07 07:09:00,33.6,31.5,29.98,NNW,346,9.0,23.0,92,0.00,,---,0.01,VWS V14.01,2013-03-07 12:09:00,
2013-03-07 07:14:00,33.6,31.5,29.98,NE,38,3.0,22.0,92,0.00,,---,0.01,VWS V14.01,2013-03-07 12:14:00,
2013-03-07 07:24:00,33.6,31.8,29.98,NNE,23,8.0,18.0,93,0.00,,---,0.01,VWS V14.01,2013-03-07 12:24:00,
2013-03-07 07:29:00,33.7,31.9,29.98,NNW,348,13.0,24.0,93,0.00,,---,0.01,VWS V14.01,2013-03-07 12:29:00,
2013-03-07 07:39:00,33.8,32.0,29.99,NE,36,7.0,22.0,93,0.00,,---,0.01,VWS V14.01,2013-03-07 12:39:00,
2013-03-07 07:44:00,33.9,32.1,29.98,East,82,6.0,12.0,93,0.00,,---,0.01,VWS V14.01,2013-03-07 12:44:00,
2013-03-07 07:49:00,33.8,32.0,29.98,North,355,6.0,14.0,93,0.00,,---,0.01,VWS V14.01,2013-03-07 12:49:00,
2013-03-07 07:54:00,33.8,32.3,29.98,ENE,70,10.0,19.0,94,0.00,,---,0.01,VWS V14.01,2013-03-07 12:54:00,
2013-03-07 07:59:00,33.9,32.4,29.98,NE,46,10.0,17.0,94,0.00,,---,0.01,VWS V14.01,2013-03-07 12:59:00,
2013-03-07 08:04:00,33.9,32.4,29.98,NE,40,5.0,20.0,94,0.00,,---,0.01,VWS V14.01,2013-03-07 13:04:00,
2013-03-07 08:09:00,34.1,32.6,29.98,NE,36,6.0,14.0,94,0.00,,---,0.01,VWS V14.01,2013-03-07 13:09:00,
2013-03-07 08:14:00,34.2,32.7,29.98,North,360,8.0,17.0,94,0.00,,---,0.01,VWS V14.01,2013-03-07 13:14:00,
2013-03-07 08:24:00,34.4,32.9,29.98,North,349,14.0,18.0,94,0.00,,---,0.01,VWS V14.01,2013-03-07 13:24:00,
2013-03-07 08:29:00,34.4,32.9,29.98,North,9,7.0,26.0,94,0.00,,---,0.01,VWS V14.01,2013-03-07 13:29:00,
2013-03-07 08:44:00,34.4,32.9,29.98,North,360,11.0,19.0,94,0.00,,---,0.01,VWS V14.01,2013-03-07 13:44:00,
2013-03-07 08:49:00,34.4,32.9,29.98,North,5,6.0,22.0,94,0.00,,---,0.01,VWS V14.01,2013-03-07 13:49:00,
2013-03-07 08:54:00,34.4,32.9,29.97,NNE,18,9.0,21.0,94,0.00,,---,0.01,VWS V14.01,2013-03-07 13:54:00,
2013-03-07 08:59:00,34.4,32.9,29.98,NE,45,9.0,19.0,94,0.01,,---,0.02,VWS V14.01,2013-03-07 13:59:00,
2013-03-07 09:04:00,34.4,32.9,29.97,NE,53,10.0,20.0,94,0.01,,---,0.02,VWS V14.01,2013-03-07 14:04:00,
2013-03-07 09:09:00,34.4,32.9,29.97,NNE,18,13.0,17.0,94,0.01,,---,0.02,VWS V14.01,2013-03-07 14:09:00,
2013-03-07 09:14:00,34.4,32.9,29.97,NNW,330,7.0,16.0,94,0.01,,---,0.02,VWS V14.01,2013-03-07 14:14:00,
2013-03-07 09:19:00,34.4,32.9,29.98,North,355,11.0,20.0,94,0.01,,---,0.02,VWS V14.01,2013-03-07 14:19:00,
2013-03-07 09:29:00,34.4,32.9,29.97,NE,55,6.0,19.0,94,0.02,,---,0.03,VWS V14.01,2013-03-07 14:29:00,
2013-03-07 09:34:00,34.4,32.9,29.97,NW,326,14.0,17.0,94,0.03,,---,0.04,VWS V14.01,2013-03-07 14:34:00,
2013-03-07 09:39:00,34.4,32.9,29.97,North,9,15.0,21.0,94,0.03,,---,0.04,VWS V14.01,2013-03-07 14:39:00,
2013-03-07 09:49:00,34.3,32.8,29.97,North,10,6.0,28.0,94,0.03,,---,0.04,VWS V14.01,2013-03-07 14:49:00,
2013-03-07 09:59:00,34.3,32.8,29.97,North,355,17.0,17.0,94,0.04,,---,0.05,VWS V14.01,2013-03-07 14:59:00,
2013-03-07 10:04:00,34.2,32.7,29.97,NNW,344,18.0,18.0,94,0.03,,---,0.05,VWS V14.01,2013-03-07 15:04:00,
2013-03-07 10:14:00,34.2,32.7,29.97,NNE,19,18.0,19.0,94,0.04,,---,0.06,VWS V14.01,2013-03-07 15:14:00,
2013-03-07 10:19:00,34.2,32.9,29.97,NNW,343,18.0,18.0,95,0.04,,---,0.06,VWS V14.01,2013-03-07 15:19:00,
2013-03-07 10:24:00,34.2,32.9,29.97,NE,51,3.0,18.0,95,0.04,,---,0.06,VWS V14.01,2013-03-07 15:24:00,
2013-03-07 10:29:00,34.2,32.9,29.97,WNW,303,11.0,24.0,95,0.03,,---,0.06,VWS V14.01,2013-03-07 15:29:00,
2013-03-07 10:39:00,34.3,33.0,29.97,North,355,7.0,13.0,95,0.03,,---,0.07,VWS V14.01,2013-03-07 15:39:00,
2013-03-07 10:44:00,34.3,33.0,29.97,North,360,6.0,16.0,95,0.03,,---,0.07,VWS V14.01,2013-03-07 15:44:00,
2013-03-07 10:49:00,34.2,32.9,29.97,ENE,72,6.0,20.0,95,0.03,,---,0.07,VWS V14.01,2013-03-07 15:49:00,
2013-03-07 10:54:00,34.3,33.0,29.97,NNE,19,6.0,18.0,95,0.04,,---,0.08,VWS V14.01,2013-03-07 15:54:00,
2013-03-07 11:04:00,34.4,33.1,29.97,ESE,112,9.0,17.0,95,0.03,,---,0.08,VWS V14.01,2013-03-07 16:04:00,
2013-03-07 11:09:00,34.4,33.1,29.97,North,355,7.0,20.0,95,0.04,,---,0.09,VWS V14.01,2013-03-07 16:09:00,
2013-03-07 11:14:00,34.4,33.1,29.97,NE,52,8.0,24.0,95,0.03,,---,0.09,VWS V14.01,2013-03-07 16:14:00,
2013-03-07 11:24:00,34.4,33.1,29.97,NNE,14,3.0,29.0,95,0.03,,---,0.09,VWS V14.01,2013-03-07 16:24:00,
2013-03-07 11:34:00,34.4,33.1,29.97,NNW,333,7.0,19.0,95,0.04,,---,0.10,VWS V14.01,2013-03-07 16:34:00,
2013-03-07 11:39:00,34.4,33.1,29.98,NNW,343,11.0,15.0,95,0.04,,---,0.10,VWS V14.01,2013-03-07 16:39:00,
2013-03-07 11:44:00,34.4,33.1,29.97,ENE,61,10.0,19.0,95,0.03,,---,0.10,VWS V14.01,2013-03-07 16:44:00,
2013-03-07 11:54:00,34.4,33.1,29.98,NNE,13,7.0,24.0,95,0.04,,---,0.11,VWS V14.01,2013-03-07 16:54:00,
2013-03-07 11:59:00,34.4,33.1,29.97,North,360,13.0,19.0,95,0.03,,---,0.11,VWS V14.01,2013-03-07 16:59:00,
2013-03-07 12:04:00,34.4,33.1,29.97,NNE,29,14.0,19.0,95,0.03,,---,0.11,VWS V14.01,2013-03-07 17:04:00,
2013-03-07 12:09:00,34.4,33.1,29.97,North,360,14.0,22.0,95,0.04,,---,0.12,VWS V14.01,2013-03-07 17:09:00,
2013-03-07 12:14:00,34.4,33.1,29.97,NE,44,10.0,21.0,95,0.03,,---,0.12,VWS V14.01,2013-03-07 17:14:00,
2013-03-07 12:19:00,34.3,33.0,29.97,ENE,69,11.0,19.0,95,0.03,,---,0.12,VWS V14.01,2013-03-07 17:19:00,
2013-03-07 12:29:00,34.4,33.1,29.97,NNE,17,4.0,17.0,95,0.03,,---,0.12,VWS V14.01,2013-03-07 17:29:00,
2013-03-07 12:39:00,34.4,33.1,29.96,NNW,329,10.0,25.0,95,0.03,,---,0.13,VWS V14.01,2013-03-07 17:39:00,
2013-03-07 12:49:00,34.4,33.1,29.96,NE,51,6.0,15.0,95,0.03,,---,0.13,VWS V14.01,2013-03-07 17:49:00,
2013-03-07 12:59:00,34.1,32.8,29.96,ENE,67,9.0,21.0,95,0.02,,---,0.13,VWS V14.01,2013-03-07 17:59:00,
2013-03-07 13:04:00,34.1,32.8,29.96,NNW,327,9.0,16.0,95,0.03,,---,0.14,VWS V14.01,2013-03-07 18:04:00,
2013-03-07 13:09:00,34.2,32.9,29.96,North,5,13.0,22.0,95,0.03,,---,0.14,VWS V14.01,2013-03-07 18:09:00,
2013-03-07 13:14:00,34.2,32.9,29.96,NNW,334,10.0,17.0,95,0.02,,---,0.14,VWS V14.01,2013-03-07 18:14:00,
2013-03-07 13:19:00,34.2,32.9,29.97,ENE,61,3.0,13.0,95,0.02,,---,0.14,VWS V14.01,2013-03-07 18:19:00,
2013-03-07 13:24:00,34.3,33.0,29.96,NE,53,6.0,17.0,95,0.02,,---,0.14,VWS V14.01,2013-03-07 18:24:00,
2013-03-07 13:29:00,34.2,32.9,29.97,NNW,333,4.0,13.0,95,0.02,,---,0.14,VWS V14.01,2013-03-07 18:29:00,
2013-03-07 13:34:00,34.1,32.8,29.97,NNE,26,11.0,13.0,95,0.03,,---,0.15,VWS V14.01,2013-03-07 18:34:00,
2013-03-07 13:39:00,34.1,32.8,29.97,NNE,12,14.0,20.0,95,0.03,,---,0.15,VWS V14.01,2013-03-07 18:39:00,
2013-03-07 13:44:00,34.2,32.9,29.97,NNE,17,10.0,21.0,95,0.02,,---,0.15,VWS V14.01,2013-03-07 18:44:00,
2013-03-07 13:49:00,34.0,32.7,29.96,NNE,30,5.0,18.0,95,0.02,,---,0.15,VWS V14.01,2013-03-07 18:49:00,
2013-03-07 13:59:00,33.8,32.5,29.96,NNE,33,4.0,21.0,95,0.03,,---,0.16,VWS V14.01,2013-03-07 18:59:00,
2013-03-07 14:04:00,33.8,32.5,29.96,NW,323,11.0,14.0,95,0.03,,---,0.16,VWS V14.01,2013-03-07 19:04:00,
2013-03-07 14:09:00,33.7,32.4,29.96,NNE,13,5.0,15.0,95,0.02,,---,0.16,VWS V14.01,2013-03-07 19:09:00,
2013-03-07 14:19:00,33.6,32.3,29.97,NNW,342,7.0,18.0,95,0.02,,---,0.16,VWS V14.01,2013-03-07 19:19:00,
2013-03-07 14:24:00,33.6,32.3,29.96,North,360,12.0,19.0,95,0.02,,---,0.16,VWS V14.01,2013-03-07 19:24:00,
2013-03-07 14:29:00,33.6,32.3,29.97,NE,36,5.0,15.0,95,0.02,,---,0.16,VWS V14.01,2013-03-07 19:29:00,
2013-03-07 14:39:00,33.4,32.1,29.97,NE,35,5.0,19.0,95,0.01,,---,0.16,VWS V14.01,2013-03-07 19:39:00,
2013-03-07 14:44:00,33.4,32.1,29.96,NE,40,5.0,15.0,95,0.01,,---,0.16,VWS V14.01,2013-03-07 19:44:00,
2013-03-07 14:54:00,33.3,32.0,29.97,NNW,344,3.0,15.0,95,0.01,,---,0.16,VWS V14.01,2013-03-07 19:54:00,
2013-03-07 14:59:00,33.2,31.9,29.97,North,350,2.0,19.0,95,0.01,,---,0.16,VWS V14.01,2013-03-07 19:59:00,
2013-03-07 15:04:00,33.2,31.9,29.97,NNW,345,11.0,17.0,95,0.00,,---,0.16,VWS V14.01,2013-03-07 20:04:00,
2013-03-07 15:09:00,33.2,31.9,29.96,NE,36,5.0,16.0,95,0.00,,---,0.16,VWS V14.01,2013-03-07 20:09:00,
2013-03-07 15:14:00,33.1,31.8,29.96,NNE,22,5.0,17.0,95,0.00,,---,0.16,VWS V14.01,2013-03-07 20:14:00,
2013-03-07 15:19:00,33.1,31.8,29.96,North,360,12.0,15.0,95,0.00,,---,0.16,VWS V14.01,2013-03-07 20:19:00,
2013-03-07 15:29:00,32.9,31.6,29.96,North,9,6.0,19.0,95,0.00,,---,0.16,VWS V14.01,2013-03-07 20:29:00,
2013-03-07 15:39:00,32.9,31.6,29.96,NNW,342,0.0,0.0,95,0.00,,---,0.16,VWS V14.01,2013-03-07 20:39:00,
2013-03-07 15:49:00,32.8,31.8,29.96,NNW,336,0.0,0.0,96,0.00,,---,0.16,VWS V14.01,2013-03-07 20:49:00,
2013-03-07 15:54:00,32.9,31.9,29.97,NNW,340,0.0,0.0,96,0.00,,---,0.16,VWS V14.01,2013-03-07 20:54:00,
2013-03-07 15:59:00,32.8,31.8,29.97,NNW,341,0.0,0.0,96,0.00,,---,0.16,VWS V14.01,2013-03-07 20:59:00,
2013-03-07 16:09:00,32.8,31.8,29.97,NNW,335,0.0,0.0,96,0.00,,---,0.16,VWS V14.01,2013-03-07 21:09:00,
2013-03-07 16:14:00,32.8,31.8,29.97,NE,36,0.0,0.0,96,0.00,,---,0.16,VWS V14.01,2013-03-07 21:14:00,
2013-03-07 16:24:00,32.7,31.7,29.97,North,360,0.0,0.0,96,0.01,,---,0.17,VWS V14.01,2013-03-07 21:24:00,
2013-03-07 16:29:00,32.7,31.7,29.97,NE,36,0.0,0.0,96,0.01,,---,0.17,VWS V14.01,2013-03-07 21:29:00,
2013-03-07 16:34:00,32.7,31.7,29.97,ENE,64,0.0,0.0,96,0.01,,---,0.17,VWS V14.01,2013-03-07 21:34:00,
2013-03-07 16:39:00,32.7,31.7,29.97,NE,44,0.0,0.0,96,0.01,,---,0.17,VWS V14.01,2013-03-07 21:39:00,
2013-03-07 16:44:00,32.7,31.7,29.97,North,360,0.0,0.0,96,0.01,,---,0.17,VWS V14.01,2013-03-07 21:44:00,
2013-03-07 16:49:00,32.7,31.7,29.97,NNW,338,0.0,0.0,96,0.01,,---,0.17,VWS V14.01,2013-03-07 21:49:00,
2013-03-07 16:54:00,32.6,31.6,29.97,NNW,348,0.0,0.0,96,0.01,,---,0.17,VWS V14.01,2013-03-07 21:54:00,
2013-03-07 16:59:00,32.6,31.6,29.97,NNW,345,0.0,0.0,96,0.01,,---,0.17,VWS V14.01,2013-03-07 21:59:00,
2013-03-07 17:04:00,32.6,31.6,29.97,North,355,0.0,0.0,96,0.01,,---,0.17,VWS V14.01,2013-03-07 22:04:00,
2013-03-07 17:14:00,32.5,31.5,29.97,NE,55,0.0,0.0,96,0.01,,---,0.17,VWS V14.01,2013-03-07 22:14:00,
2013-03-07 17:19:00,32.4,31.4,29.97,North,350,0.0,0.0,96,0.01,,---,0.17,VWS V14.01,2013-03-07 22:19:00,
2013-03-07 17:24:00,32.3,31.3,29.97,NE,40,0.0,0.0,96,0.00,,---,0.17,VWS V14.01,2013-03-07 22:24:00,
2013-03-07 17:29:00,32.3,31.3,29.97,NNW,346,0.0,0.0,96,0.00,,---,0.17,VWS V14.01,2013-03-07 22:29:00,
2013-03-07 17:34:00,32.3,31.3,29.97,NNW,344,0.0,0.0,96,0.00,,---,0.17,VWS V14.01,2013-03-07 22:34:00,
2013-03-07 17:44:00,32.2,31.2,29.97,NNW,330,0.0,0.0,96,0.00,,---,0.17,VWS V14.01,2013-03-07 22:44:00,
2013-03-07 17:49:00,32.2,31.2,29.97,North,5,0.0,0.0,96,0.00,,---,0.17,VWS V14.01,2013-03-07 22:49:00,
2013-03-07 17:59:00,32.3,31.3,29.97,NNW,341,0.0,0.0,96,0.00,,---,0.17,VWS V14.01,2013-03-07 22:59:00,
2013-03-07 18:09:00,32.3,31.3,29.98,North,355,0.0,0.0,96,0.00,,---,0.17,VWS V14.01,2013-03-07 23:09:00,
2013-03-07 18:14:00,32.3,31.3,29.97,NNW,334,0.0,0.0,96,0.00,,---,0.17,VWS V14.01,2013-03-07 23:14:00,
2013-03-07 18:24:00,32.3,31.3,29.98,NNE,19,0.0,0.0,96,0.00,,---,0.17,VWS V14.01,2013-03-07 23:24:00,
2013-03-07 18:34:00,32.3,31.3,29.97,North,360,0.0,0.0,96,0.00,,---,0.17,VWS V14.01,2013-03-07 23:34:00,
2013-03-07 18:39:00,32.3,31.3,29.97,East,88,0.0,0.0,96,0.00,,---,0.17,VWS V14.01,2013-03-07 23:39:00,
2013-03-07 18:44:00,32.3,31.3,29.97,NNW,342,0.0,0.0,96,0.00,,---,0.17,VWS V14.01,2013-03-07 23:44:00,
2013-03-07 18:54:00,32.4,31.4,29.97,NNE,18,0.0,0.0,96,0.00,,---,0.17,VWS V14.01,2013-03-07 23:54:00,
2013-03-07 19:04:00,32.5,31.5,29.97,North,355,0.0,0.0,96,0.00,,---,0.17,VWS V14.01,2013-03-08 00:04:00,
2013-03-07 19:14:00,32.9,31.9,29.97,NE,48,0.0,0.0,96,0.00,,---,0.17,VWS V14.01,2013-03-08 00:14:00,
2013-03-07 19:19:00,33.0,32.0,29.97,North,351,0.0,0.0,96,0.00,,---,0.17,VWS V14.01,2013-03-08 00:19:00,
2013-03-07 19:24:00,33.1,32.1,29.97,NE,38,0.0,0.0,96,0.00,,---,0.17,VWS V14.01,2013-03-08 00:24:00,
2013-03-07 19:29:00,33.0,32.0,29.97,North,355,0.0,0.0,96,0.00,,---,0.17,VWS V14.01,2013-03-08 00:29:00,
2013-03-07 19:34:00,33.0,32.0,29.97,NNE,29,0.0,0.0,96,0.00,,---,0.17,VWS V14.01,2013-03-08 00:34:00,
2013-03-07 19:39:00,33.0,32.0,29.97,North,360,0.0,0.0,96,0.00,,---,0.17,VWS V14.01,2013-03-08 00:39:00,
2013-03-07 19:44:00,33.0,32.0,29.97,NNW,340,0.0,0.0,96,0.00,,---,0.17,VWS V14.01,2013-03-08 00:44:00,
2013-03-07 19:49:00,33.1,32.1,29.97,North,355,0.0,0.0,96,0.00,,---,0.17,VWS V14.01,2013-03-08 00:49:00,
2013-03-07 19:54:00,33.2,32.2,29.96,NNW,331,0.0,0.0,96,0.00,,---,0.17,VWS V14.01,2013-03-08 00:54:00,
2013-03-07 19:59:00,33.2,32.2,29.96,NNE,28,0.0,0.0,96,0.00,,---,0.17,VWS V14.01,2013-03-08 00:59:00,
2013-03-07 20:04:00,33.2,32.2,29.96,NNE,28,0.0,0.0,96,0.00,,---,0.17,VWS V14.01,2013-03-08 01:04:00,
2013-03-07 20:09:00,33.2,32.2,29.96,NE,56,0.0,0.0,96,0.00,,---,0.17,VWS V14.01,2013-03-08 01:09:00,
2013-03-07 20:19:00,33.3,32.3,29.96,North,11,0.0,0.0,96,0.00,,---,0.17,VWS V14.01,2013-03-08 01:19:00,
2013-03-07 20:24:00,33.3,32.3,29.96,ENE,61,0.0,0.0,96,0.00,,---,0.17,VWS V14.01,2013-03-08 01:24:00,
2013-03-07 20:29:00,33.4,32.4,29.96,NNE,14,0.0,0.0,96,0.00,,---,0.17,VWS V14.01,2013-03-08 01:29:00,
2013-03-07 20:34:00,33.5,32.5,29.96,NW,326,0.0,0.0,96,0.00,,---,0.17,VWS V14.01,2013-03-08 01:34:00,
2013-03-07 20:39:00,33.5,32.5,29.96,North,9,0.0,0.0,96,0.00,,---,0.17,VWS V14.01,2013-03-08 01:39:00,
2013-03-07 20:44:00,33.5,32.5,29.96,NNE,14,0.0,0.0,96,0.00,,---,0.17,VWS V14.01,2013-03-08 01:44:00,
2013-03-07 20:49:00,33.5,32.5,29.96,North,360,0.0,0.0,96,0.00,,---,0.17,VWS V14.01,2013-03-08 01:49:00,
2013-03-07 20:54:00,33.5,32.5,29.95,NNW,347,0.0,0.0,96,0.00,,---,0.17,VWS V14.01,2013-03-08 01:54:00,
2013-03-07 20:59:00,33.5,32.5,29.95,NE,37,0.0,0.0,96,0.00,,---,0.17,VWS V14.01,2013-03-08 01:59:00,
2013-03-07 21:04:00,33.4,32.4,29.95,NNE,18,0.0,0.0,96,0.00,,---,0.17,VWS V14.01,2013-03-08 02:04:00,
2013-03-07 21:09:00,33.5,32.5,29.95,NNW,330,0.0,0.0,96,0.00,,---,0.17,VWS V14.01,2013-03-08 02:09:00,
2013-03-07 21:14:00,33.5,32.5,29.94,NNE,18,0.0,0.0,96,0.00,,---,0.17,VWS V14.01,2013-03-08 02:14:00,
2013-03-07 21:24:00,33.5,32.5,29.94,NNE,14,0.0,0.0,96,0.00,,---,0.17,VWS V14.01,2013-03-08 02:24:00,
2013-03-07 21:29:00,33.5,32.5,29.94,NNW,336,0.0,0.0,96,0.00,,---,0.17,VWS V14.01,2013-03-08 02:29:00,
2013-03-07 21:39:00,33.4,32.4,29.94,NNE,15,0.0,0.0,96,0.00,,---,0.17,VWS V14.01,2013-03-08 02:39:00,
2013-03-07 21:44:00,33.4,32.4,29.94,NNE,28,0.0,0.0,96,0.00,,---,0.17,VWS V14.01,2013-03-08 02:44:00,
2013-03-07 21:54:00,33.3,32.3,29.94,North,349,0.0,0.0,96,0.00,,---,0.17,VWS V14.01,2013-03-08 02:54:00,
2013-03-07 21:59:00,33.3,32.3,29.94,NW,323,0.0,0.0,96,0.00,,---,0.17,VWS V14.01,2013-03-08 02:59:00,
2013-03-07 22:04:00,33.3,32.3,29.94,NNW,348,0.0,0.0,96,0.00,,---,0.17,VWS V14.01,2013-03-08 03:04:00,
2013-03-07 22:09:00,33.3,32.3,29.94,NE,53,0.0,0.0,96,0.00,,---,0.17,VWS V14.01,2013-03-08 03:09:00,
2013-03-07 22:14:00,33.3,32.3,29.93,North,360,0.0,0.0,96,0.00,,---,0.17,VWS V14.01,2013-03-08 03:14:00,
2013-03-07 22:19:00,33.3,32.3,29.93,NE,44,0.0,0.0,96,0.00,,---,0.17,VWS V14.01,2013-03-08 03:19:00,
2013-03-07 22:24:00,33.3,32.3,29.94,NNE,31,0.0,0.0,96,0.00,,---,0.17,VWS V14.01,2013-03-08 03:24:00,
2013-03-07 22:29:00,33.3,32.3,29.93,North,5,0.0,0.0,96,0.00,,---,0.17,VWS V14.01,2013-03-08 03:29:00,
2013-03-07 22:39:00,33.3,32.3,29.94,NE,54,0.0,0.0,96,0.00,,---,0.17,VWS V14.01,2013-03-08 03:39:00,
2013-03-07 22:44:00,33.3,32.3,29.94,NNW,328,0.0,0.0,96,0.00,,---,0.17,VWS V14.01,2013-03-08 03:44:00,
2013-03-07 22:49:00,33.3,32.3,29.94,NNE,14,0.0,0.0,96,0.00,,---,0.17,VWS V14.01,2013-03-08 03:49:00,
2013-03-07 22:54:00,33.3,32.3,29.94,ENE,64,0.0,0.0,96,0.00,,---,0.17,VWS V14.01,2013-03-08 03:54:00,
2013-03-07 22:59:00,33.3,32.3,29.94,NNW,348,0.0,0.0,96,0.00,,---,0.17,VWS V14.01,2013-03-08 03:59:00,
2013-03-07 23:09:00,33.3,32.3,29.93,NNW,348,0.0,0.0,96,0.00,,---,0.17,VWS V14.01,2013-03-08 04:09:00,
2013-03-07 23:19:00,33.3,32.3,29.93,NNW,342,0.0,0.0,96,0.00,,---,0.17,VWS V14.01,2013-03-08 04:19:00,
2013-03-07 23:24:00,33.3,32.3,29.93,NNW,348,0.0,0.0,96,0.00,,---,0.17,VWS V14.01,2013-03-08 04:24:00,
2013-03-07 23:29:00,33.3,32.3,29.93,NNE,28,0.0,0.0,96,0.00,,---,0.17,VWS V14.01,2013-03-08 04:29:00,
2013-03-07 23:34:00,33.3,32.3,29.92,NNW,331,0.0,0.0,96,0.00,,---,0.17,VWS V14.01,2013-03-08 04:34:00,
2013-03-07 23:39:00,33.3,32.3,29.93,NNW,346,0.0,0.0,96,0.00,,---,0.17,VWS V14.01,2013-03-08 04:39:00,
2013-03-07 23:44:00,33.3,32.3,29.93,NNE,17,0.0,0.0,96,0.00,,---,0.17,VWS V14.01,2013-03-08 04:44:00,
2013-03-07 23:49:00,33.3,32.3,29.92,NNE,24,0.0,0.0,96,0.00,,---,0.17,VWS V14.01,2013-03-08 04:49:00,
2013-03-07 23:54:00,33.3,32.3,29.92,NE,36,0.0,0.0,96,0.00,,---,0.17,VWS V14.01,2013-03-08 04:54:00,
2013-03-07 23:59:00,33.3,32.3,29.92,NNE,23,0.0,0.0,96,0.00,,---,0.17,VWS V14.01,2013-03-08 04:59:00,